Location: Caltech
(34.1382°N, 118.1253°W)
Time: 14:45:35
(UTC-07:00)

CZ-2C R/B - Visible Passes

Search period start: 02 September 2015 00:00
Search period end: 12 September 2015 00:00
Orbit: 670 x 785 km, 98.1° (Epoch: 01 September)

Date Brightness Start Highest point End Pass type
(mag) Time Alt. Az. Time Alt. Az. Time Alt. Az.
03 Sep 4.9 20:17:15 10° SSW 20:21:23 24° W 20:25:28 10° NW visible
04 Sep 2.8 19:28:19 10° S 19:33:23 76° WSW 19:38:35 10° NNW visible
05 Sep 5.0 20:20:05 10° SW 20:24:08 23° W 20:28:06 10° NW visible
06 Sep 2.9 19:31:02 10° S 19:36:06 71° W 19:41:18 10° NNW visible
07 Sep 5.1 20:22:57 10° SW 20:26:52 21° W 20:30:42 10° NW visible
08 Sep 3.0 19:33:45 10° S 19:38:50 66° W 19:44:01 10° NNW visible
09 Sep 5.2 20:25:49 10° SW 20:29:37 20° W 20:33:17 10° NW visible
10 Sep 3.2 19:36:28 10° S 19:41:34 62° W 19:46:43 10° NNW visible
11 Sep 5.3 20:28:43 10° SW 20:32:23 19° W 20:35:51 10° NW visible
